This demonstration page uses our WeatherBlox Daily Observations layout. Learn more.

Left ArrowRight Arrow

39.92423, -83.80882

Hourly Observations for August 17, 2021

Temp ( °F °C ) Dew Point ( °F °C ) Humidity (%) Winds ( mph kmh ) Pressure ( in mb ) Visibility ( mi km ) Precip ( " mm )
12:56 am 00:56 Hazy 70 21 N/A N/A SE 5 7 30.06 1018 6 10 0.00 0.00
1:29 am 01:29 Mostly Cloudy 70 21 N/A N/A SE 3 6 30.04 1017 10 16 0.00 0.00
1:44 am 01:44 Cloudy 70 21 N/A N/A ESE 3 6 30.04 1017 9 14 0.00 0.00
1:56 am 01:56 Cloudy 70 21 N/A N/A SSE 3 6 30.05 1018 7 11 0.00 0.00
2:03 am 02:03 Cloudy 70 21 N/A N/A SE 5 7 30.03 1017 8 13 0.00 0.00
2:42 am 02:42 Clear with Mist and Fog 68 20 N/A N/A Calm 30.02 1017 2 3 0.00 0.00
2:45 am 02:45 Clear with Mist and Fog 68 20 N/A N/A Calm 30.02 1017 1 1 0.00 0.00
2:48 am 02:48 Mostly Cloudy with Fog 68 20 N/A N/A Calm 30.02 1017 1 1 0.00 0.00
2:56 am 02:56 Mostly Cloudy with Fog 66 19 N/A N/A ENE 3 6 30.03 1017 1 1 0.00 0.00
3:01 am 03:01 Mostly Cloudy with Mist and Fog 66 19 N/A N/A ENE 3 6 30.03 1017 1 2 0.00 0.00
3:05 am 03:05 Mostly Cloudy with Mist and Fog 66 19 N/A N/A ENE 3 6 30.03 1017 2 3 0.00 0.00
3:25 am 03:25 Cloudy with Mist and Fog 66 19 N/A N/A E 5 7 30.02 1016 1 2 0.00 0.00
3:31 am 03:31 Cloudy with Fog 66 19 N/A N/A E 3 6 30.03 1017 1 1 0.00 0.00
3:53 am 03:53 Cloudy with Fog 66 19 N/A N/A SE 5 7 30.03 1017 0 0 0.00 0.00
3:56 am 03:56 Cloudy with Fog 66 19 N/A N/A SE 3 6 30.03 1017 0 0 0.00 0.00
4:56 am 04:56 Cloudy with Fog 66 19 N/A N/A Calm 30.03 1017 0 0 0.00 0.00
5:42 am 05:42 Cloudy with Fog 66 19 N/A N/A Calm 30.03 1017 1 1 0.00 0.00
5:49 am 05:49 Cloudy with Fog 66 19 N/A N/A ENE 3 6 30.03 1017 0 0 0.00 0.00
5:56 am 05:56 Cloudy with Fog 66 19 N/A N/A ENE 3 6 30.04 1017 0 0 0.00 0.00
6:39 am 06:39 Cloudy with Fog 66 19 N/A N/A E 3 6 30.04 1017 1 1 0.00 0.00
6:48 am 06:48 Cloudy with Fog 66 19 N/A N/A Calm 30.05 1017 0 0 0.00 0.00
6:56 am 06:56 Cloudy with Fog 66 19 N/A N/A Calm 30.05 1018 0 0 0.00 0.00
7:23 am 07:23 Cloudy with Mist and Fog 66 19 N/A N/A ESE 5 7 30.06 1018 1 1 0.00 0.00
7:31 am 07:31 Cloudy with Fog 66 19 N/A N/A E 5 7 30.06 1018 0 0 0.00 0.00
7:44 am 07:44 Cloudy with Mist and Fog 68 20 68 20 100 100 E 6 9 30.05 1018 1 1 0.00 0.00
7:51 am 07:51 Cloudy with Mist and Fog 68 20 68 20 100 100 E 6 9 30.05 1018 1 2 0.00 0.00
7:56 am 07:56 Cloudy with Mist and Fog 68 20 68 20 100 100 E 5 7 30.07 1018 2 2 0.00 0.00
8:06 am 08:06 Cloudy with Mist and Fog 70 21 70 21 100 100 E 3 6 30.06 1018 3 4 0.00 0.00
8:15 am 08:15 Cloudy with Mist and Fog 70 21 70 21 100 100 E 6 9 30.06 1018 3 5 0.00 0.00
8:56 am 08:56 Cloudy with Mist and Fog 70 21.1 70 21.1 100 100 E 5 7 30.08 1019 4 6 0.00 0.00
9:22 am 09:22 Cloudy with Mist and Fog 72 22 72 22 100 100 E 6 9 30.06 1018 6 10 0.00 0.00
9:56 am 09:56 Cloudy 72 22 N/A N/A E 5 7 30.08 1019 7 11 0.00 0.00
10:30 am 10:30 Cloudy with Light Rain 72 22 N/A N/A ESE 7 11 30.06 1018 10 16 0.00 0.00
10:56 am 10:56 Cloudy with Light Rain 72 22 N/A N/A SE 6 9 30.09 1019 4 6 0.00 0.00
11:15 am 11:15 Cloudy with Light Rain 72 22 N/A N/A ESE 6 9 30.06 1018 8 13 0.01 0.25
11:49 am 11:49 Cloudy with Light Rain 72 22 N/A N/A SE 6 9 30.06 1018 10 16 0.01 0.25
11:56 am 11:56 Cloudy 73 23 N/A N/A ESE 5 7 30.09 1019 10 16 0.01 0.25
12:06 pm 12:06 Cloudy 73 23 N/A N/A ESE 5 7 30.06 1018 10 16 0.00 0.00
12:42 pm 12:42 Cloudy 75 24 N/A N/A E 6 9 30.05 1018 10 16 0.00 0.00
12:51 pm 12:51 Cloudy 75 24 N/A N/A ENE 7 11 30.05 1018 10 16 0.00 0.00
12:56 pm 12:56 Mostly Cloudy 76 24.4 76 24.4 100 100 E 6 9 30.07 1018 10 16 0.00 0.00
1:04 pm 13:04 Mostly Cloudy 77 25 75 24 94 94 VRB 5 7 30.03 1017 10 16 0.00 0.00
1:41 pm 13:41 Mostly Cloudy 79 26 75 24 89 89 E 8 13 30.03 1017 10 16 0.00 0.00
1:56 pm 13:56 Cloudy 79 26.1 75 23.9 88 88 E 7 11 30.06 1018 10 16 0.00 0.00
2:56 pm 14:56 Mostly Cloudy with Light Rain 77 25 76 24.4 96 96 SSE 8 13 30.06 1018 10 16 0.00 0.00
3:23 pm 15:23 Cloudy with Light Rain 75 24 N/A N/A SE 9 15 30.02 1016 10 16 0.00 0.00
3:43 pm 15:43 Mostly Cloudy 77 25 N/A N/A ESE 6 9 30.00 1016 10 16 0.01 0.25
3:56 pm 15:56 Partly Cloudy 78 25.6 78 25.6 100 100 ESE 6 9 30.03 1017 10 16 0.01 0.25
4:23 pm 16:23 Mostly Cloudy 79 26 77 25 94 94 E 7 11 29.99 1016 10 16 0.00 0.00
4:31 pm 16:31 Partly Cloudy 79 26 77 25 94 94 E 7 11 30.00 1016 10 16 0.00 0.00
4:43 pm 16:43 Mostly Cloudy 79 26 75 24 89 89 ESE 7 11 30.00 1016 10 16 0.00 0.00
4:51 pm 16:51 Partly Cloudy 79 26 73 23 84 84 E 7 11 29.99 1016 10 16 0.00 0.00
4:56 pm 16:56 Partly Cloudy 78 25.6 74 23.3 87 87 ESE 7 11 30.02 1017 10 16 0.00 0.00
5:56 pm 17:56 Mostly Cloudy 77 25 77 25 100 100 SE 6 9 30.02 1017 10 16 0.00 0.00
6:56 pm 18:56 Mostly Cloudy 76 24.4 76 24.4 100 100 ESE 6 9 30.01 1016 10 16 0.00 0.00
7:56 pm 19:56 Sunny 75 24 N/A N/A Calm 30.01 1016 10 16 0.00 0.00
8:11 pm 20:11 Mostly Cloudy 73 23 N/A N/A Calm 29.99 1016 10 16 0.00 0.00
8:37 pm 20:37 Partly Cloudy 73 23 N/A N/A ESE 3 6 29.99 1016 10 16 0.00 0.00
8:56 pm 20:56 Clear 73 23 N/A N/A ESE 5 7 30.02 1017 10 16 0.00 0.00
9:56 pm 21:56 Clear 72 22 N/A N/A E 3 6 30.04 1017 10 16 0.00 0.00
10:56 pm 22:56 Clear 72 22 N/A N/A ESE 5 7 30.05 1018 10 16 0.00 0.00
11:56 pm 23:56 Clear 70 21 N/A N/A ENE 5 7 30.04 1017 10 16 0.00 0.00

Powered by AerisWeather